STARLINK-33805, 63590

Orbit data source: Space-Track

STARLINK-33805, 63590 is a payload satellite owned by SpaceX/Seattle (US) in LEO that was launched on Mon, 14 Apr 2025 UTC via an FALCON 9 launch vehicle from the Air Force Eastern Test Range (AFETR). Payload-class satellites include a variety of spacecraft equipped with specific instruments for various scientific and technological missions. These include communications satellites like Starlink; space stations such as the ISS; scientific satellites like the Hubble; Earth observation satellites from companies like Planet Labs, Umbra, and HawkEye 360; GPS; miniature CubeSats for education and research; and military/defense satellites.

Loading next visibility...
Identifier
63590, 2025-076X
Orbit
LEO
Country
Flag of USUS
Related business
Manufacturer
SpaceX/Seattle
Mission
Operational Commercial Communications
Bus & Motor
STARLINK V2MO, Unknown motor
Mass
575 kg wet, ~530 kg dry
Launch date (UTC)
2025-04-14 (1 year ago)
Launch vehicle
FALCON 9
Launch site
Air Force Eastern Test Range (AFETR)
Object type
Payload
Rocket body
Debris
Shape & HBR
Box + 2 Pan, 17.7 m
Radar Cross Section
36.964 m², Large (>1 m²)

Expand to show TLE details & history
Last TLE update: 10 hours ago

TLE from 10 hours ago
0 STARLINK-33805
1 63590U 25076X   26144.97938446  .00011868  00000-0  43970-3 0  9990
2 63590  42.9963 251.2046 0002201 265.0372  95.0228 15.27609858 63497
Epoch: 2026-05-24T23:30Z
TLE epoch observation values (Epoch: 2026-05-24T23:30:18.817Z)
Latitude
-0.00004°
Longitude
16.0524°
Altitude
482.867 km
Speed
7.626 km/s
True Right ascension
16h 44m 49s
True Declination
0° 00' 00"
Sunlit
Object was in full shadow at epoch
Visualization orbit readout
Latitude
Unknown
Longitude
Unknown
Altitude
Unknown
Speed
Unknown
Apparent Right ascension
Unknown
Apparent Declination
Unknown
Sunlit
N/A
Visualization observer readout
Local Sidereal Time
18:27:11
Azimuth
Unknown
Elevation
Unknown
Doppler factor
Unknown
Orbital elements
Apogee altitude
486.416 km
Perigee altitude
483.395 km
Semi-major axis
6,863.043 km
Eccentricity
0.00022
Inclination
42.9963°
RAAN
251.2046°
Arg. of periapsis
265.0372°
True anomaly
95.04792°
Mean anomaly
95.0228°
Eccentric anomaly
95.03536°
Mean motion
3.8174 °/min
Orbital period
94.3 mins
BSTAR
0.0004397
Loading maneuver chart data...
Computing Atmospheric mass density...
Loading historical data...
Loading historical data...
Loading historical data...
Loading historical data...
Loading historical data...
Loading historical data...
Loading historical data...

Documentation

Showing up to 5 results
|